User: anonymous   Login
Location: Strohbehn Observatory
(42.4649°N, 93.8239°W)
Time: 14:12:34
(UTC-05:00)
Language:

SL-16 R/B - Orbit

View from above orbital plane
View from above orbital plane
View from above satellite
View from above satellite

Ground track
Ground track

The orbit data is extracted from the following two-line orbital elements,

1 31793U 07029B   17141.91565260 -.00000319 +00000-0 -14184-3 0  9995
2 31793 070.9756 084.3467 0002479 259.8437 156.3419 14.14379765510968
Epoch (UTC): 21 May 2017 21:58:32
Eccentricity: 0.0002479
inclination: 70.9756°
perigee height: 842 km
apogee height: 846 km
right ascension of ascending node: 84.3467°
argument of perigee: 259.8437°
revolutions per day: 14.14379765
mean anomaly at epoch: 156.3419°
orbit number at epoch: 51096

The dashed part of the orbit path shows where the satellite is in the earth's shadow,  

DLR